Home > Weather > Cuxhaven > Past weeks

Flag for Germany Weather for the Past 2 Weeks in Cuxhaven, Lower Saxony, Germany

Now
50 °F

Broken clouds.


Feels Like: 44 °F
Forecast: 43 / 50 °F
Wind: 17 mph from South

Location: Nordholz

Current Time: Apr 29, 2016 at 12:22:38 PM

Latest Report: Apr 29, 2016 at 11:20 AM


Visibility: N/A

Pressure: 29.83 "Hg

Humidity: 62%

Dew Point: 37 °F

Location of CuxhavenLocation

Historic Weather in Cuxhaven — Graph

°F

Cuxhaven Temperature Yesterday

Maximum temperature yesterday: 46 °F (at 2:20 PM)
Minimum temperature yesterday: 37 °F (at 2:20 AM)
Average temperature yesterday: 41 °F

High & Low Weather Summary for the Past Weeks

 TemperatureHumidityPressure
High55 °F (Apr 14, 4:20 PM)100% (Apr 14, 10:20 AM)30.45 "Hg (Apr 14, 10:20 AM)
Low32 °F (Apr 25, 11:20 PM)50% (Apr 21, 3:20 PM)29.36 "Hg (Apr 26, 6:20 AM)
Average43 °F81%29.85 "Hg
* Reported Apr 14 10:20 AM — Apr 29 10:20 AM, Cuxhaven, Weather by CustomWeather, © 2016

Note: Actual official high and low records may vary slightly from our data, if they occured in-between our weather recording intervals... More about our weather records

Advertising

Cuxhaven Weather History for the Previous 24 Hours

Scroll right to see more
 ConditionsComfort  
Time TempWeatherWind HumidityBarometerVisibility
10:20 AM
Fri, Apr 29
46 °FPartly sunny.15 mph71%29.83 "HgN/A
9:20 AM45 °FPartly sunny.15 mph76%29.86 "HgN/A
8:20 AM41 °FBroken clouds.14 mph81%29.86 "HgN/A
7:20 AM37 °FPartly sunny.12 mph93%29.86 "Hg4 mi
7:03 AM37 °FPartly sunny.9 mph93%29.86 "Hg4 mi
6:20 AM36 °FFog.10 mph93%29.86 "Hg2 mi
5:20 AM36 °FFog.9 mph93%29.89 "Hg3 mi
4:20 AM36 °FPassing clouds.9 mph93%29.89 "Hg4 mi
3:20 AM36 °FPassing clouds.7 mph93%29.92 "Hg5 mi
2:20 AM37 °FPassing clouds.7 mph93%29.92 "Hg6 mi
1:20 AM39 °FPassing clouds.7 mph87%29.92 "HgN/A
12:20 AM39 °FPassing clouds.6 mph87%29.92 "HgN/A
11:20 PM
Thu, Apr 28
39 °FPartly cloudy.8 mph87%29.92 "HgN/A
10:20 PM39 °FPassing clouds.6 mph87%29.92 "HgN/A
9:20 PM41 °FBroken clouds.5 mph81%29.95 "HgN/A
8:58 PM41 °FBroken clouds.5 mph81%29.92 "HgN/A
8:20 PM41 °FBroken clouds.5 mph76%29.92 "HgN/A
7:20 PM45 °FBroken clouds.8 mph66%29.92 "HgN/A
6:20 PM46 °FScattered showers. Partly sunny.10 mph62%29.92 "HgN/A
5:20 PM46 °FScattered clouds.12 mph66%29.92 "HgN/A
4:20 PM46 °FScattered clouds.16 mph71%29.92 "HgN/A
3:20 PM46 °FScattered clouds.17 mph71%29.92 "HgN/A
2:20 PM46 °FScattered clouds.13 mph76%29.89 "HgN/A
1:20 PM45 °FScattered showers. Passing clouds.10 mph76%29.89 "HgN/A
12:20 PM43 °FScattered showers. Passing clouds.5 mph87%29.89 "HgN/A
Weather by CustomWeather, © 2016

See weather overviewHow to use our weather pages